EDT,Max TemperatureF,Mean TemperatureF,Min TemperatureF,Max Dew PointF,MeanDew PointF,Min DewpointF,Max Humidity, Mean Humidity, Min Humidity, Max Sea Level PressureIn, Mean Sea Level PressureIn, Min Sea Level PressureIn, Max VisibilityMiles, Mean VisibilityMiles, Min VisibilityMiles, Max Wind SpeedMPH, Mean Wind SpeedMPH, Max Gust SpeedMPH,PrecipitationIn, CloudCover, Events, WindDirDegrees
2013-4-1,69,56,44,54,42,32,100,64,28,30.01,29.88,29.82,10,9,0,16,4,29,0.01,4,Fog-Rain,296
2013-4-2,57,44,32,32,25,18,100,49,21,30.17,30.11,30.02,10,10,10,13,5,24,0.00,0,,336
2013-4-3,55,44,32,32,20,14,87,40,20,30.32,30.25,30.17,10,10,10,10,4,18,0.00,1,,358
2013-4-4,48,42,35,37,28,18,100,66,34,30.40,30.24,29.96,10,9,2,16,9,23,0.23,4,Rain,56
2013-4-5,62,48,35,45,38,30,100,77,30,30.03,29.95,29.89,10,9,4,10,5,16,0.03,5,Rain,343
2013-4-6,62,50,37,37,28,18,100,46,24,30.30,30.21,30.04,10,10,10,16,5,21,0.00,0,,70
2013-4-7,69,51,33,43,36,32,100,57,28,30.29,30.21,30.12,10,10,10,16,5,23,0.00,0,,193
2013-4-8,77,64,51,54,49,41,94,60,34,30.18,30.12,30.06,10,10,10,16,8,23,0.00,1,,221
2013-4-9,82,68,55,55,53,48,100,57,32,30.20,30.13,30.07,10,10,7,15,6,20,0.00,0,,219
2013-4-10,86,72,59,59,55,52,88,56,31,30.10,30.04,29.95,10,10,10,15,7,24,0.00,0,,217
2013-4-11,78,69,60,64,58,55,94,66,44,30.00,29.92,29.81,10,10,10,17,9,26,0.00,2,,210
2013-4-12,80,71,62,68,59,37,100,69,33,29.81,29.71,29.62,10,10,2,21,11,31,0.69,6,Rain-Thunderstorm,218
2013-4-13,71,56,42,46,39,34,100,51,25,30.02,29.94,29.80,10,10,10,14,3,21,0.00,0,,285
2013-4-14,78,58,39,48,39,32,100,54,19,30.13,30.07,30.02,10,10,7,8,2,17,0.00,1,Rain,185
2013-4-15,69,61,53,57,54,50,100,81,56,30.24,30.14,30.06,10,10,7,15,7,20,0.10,8,Rain,69
2013-4-16,73,64,55,59,58,55,100,83,53,30.33,30.26,30.22,10,10,7,8,2,,0.00,6,,138
2013-4-17,77,66,55,64,60,55,100,83,57,30.24,30.20,30.14,10,9,0,8,2,,0.00,2,Fog,226
2013-4-18,77,68,60,63,58,54,100,69,44,30.22,30.15,30.06,10,10,7,14,6,20,0.00,3,,177
2013-4-19,78,71,62,68,64,61,100,86,61,30.06,29.88,29.72,10,10,3,20,10,34,0.77,8,Rain-Thunderstorm,198
2013-4-20,62,52,41,59,36,28,100,58,29,30.29,30.11,29.85,10,10,10,14,6,23,0.00,1,,323
2013-4-21,59,48,37,41,34,30,100,59,38,30.52,30.45,30.30,10,10,7,16,7,24,0.00,1,,65
2013-4-22,59,47,35,43,35,30,100,66,38,30.51,30.40,30.30,10,10,10,15,8,21,0.00,3,,45
2013-4-23,66,56,46,50,44,41,100,75,46,30.31,30.23,30.14,10,10,10,12,6,20,0.00,5,Rain,28
2013-4-24,73,58,42,54,51,43,100,74,47,30.16,30.08,29.98,10,9,1,23,5,33,0.00,1,,218
2013-4-25,68,55,42,55,41,34,100,59,30,30.30,30.21,30.03,10,10,10,10,5,18,0.00,2,,338
2013-4-26,68,52,35,46,38,30,100,64,26,30.45,30.38,30.30,10,10,5,15,1,18,0.00,0,,45
2013-4-27,69,56,44,55,46,41,100,65,37,30.40,30.34,30.28,10,10,7,9,1,,0.00,4,Rain,180
2013-4-28,57,54,51,55,52,46,100,92,72,30.28,30.22,30.12,10,9,4,8,2,,0.18,8,Rain,107
2013-4-29,68,60,53,61,57,54,100,93,73,30.11,30.05,30.00,10,8,0,7,3,,0.48,6,Fog-Rain,111
2013-4-30,64,58,51,57,55,52,100,92,73,30.22,30.14,30.04,10,8,0,9,4,,0.00,6,Fog,33